Regional Weather Roundup
Issued by NWS

Home | Current Version | Previous Version | Graphics & Text | Print | Product List | Glossary On
Versions: 1 2 3 4 5 6 7 8 9 10 11 12 13 14 15 16 17 18 19 20 21 22 23 24 25 26 27 28 29 30 31 32 33 34 35 36 37 38 39 40 41 42 43 44 45 46 47 48 49 50
000
ASUS43 KMPX 201301
RWRMN
WEATHER ROUNDUP FOR MINNESOTA
NATIONAL WEATHER SERVICE TWIN CITIES/CHANHASSEN MN
800 AM CDT MON OCT 20 2014


NOTE: "FAIR" INDICATES FEW OR NO CLOUDS BELOW 12,000 FEET WITH NO
SIGNIFICANT WEATHER AND/OR OBSTRUCTIONS TO VISIBILITY. N/A MEANS
CURRENT SKY AND/OR WEATHER CONDITIONS ARE NOT AVAILABLE.

MNZ060>063-068>070-201400-
   Twin Cities Metro

CITY           SKY/WX    TMP DP  RH WIND       PRES   REMARKS
TWIN CITIES    CLEAR     47  41  80 NW7       29.97R
ST PAUL        CLEAR     44  40  85 NW7       29.98R
CRYSTAL        FAIR      46  40  79 NW7       29.96R
BLAINE         CLEAR     45  43  93 NW6       29.96R
LAKEVILLE      CLEAR     43  39  87 W5        29.97R
EDEN PRAIRIE   CLEAR     47  41  80 NW6       29.96R
SOUTH ST PAUL  CLEAR     43  39  88 CALM      29.97R
LAKE ELMO      FAIR      43  41  93 NW3       29.97R
$$
MNZ001>005-007-008-013>017-022>024-027-028-201400-
   Northwest Minnesota

CITY           SKY/WX    TMP DP  RH WIND       PRES   REMARKS
BEMIDJI        CLEAR     34  34  99 W6        30.00R WCI  29
HALLOCK        CLEAR     34  32  93 CALM      30.05R FOG
ROSEAU         CLOUDY    39  36  87 W7        30.02R
WARROAD        CLOUDY    41  37  87 NW6       30.02R
THIEF RVR FALL CLEAR     37  36  93 NW3       30.03S
CROOKSTON      CLEAR     34  32  93 CALM      30.05S
FOSSTON        FOG       30  28  93 CALM      30.03R VSB 1/4
DETROIT LAKES  CLEAR     37  36  93 NW5       30.03S
MOORHEAD       CLEAR     37  37 100 CALM      30.05R
PARK RAPIDS    CLEAR     34  32  92 W5        30.00R WCI  30
MAHNOMEN       FAIR      33  33  98 CALM      30.02S
$$
MNZ006-009>011-018-025>026-201400-
   North Central Minnesota

CITY           SKY/WX    TMP DP  RH WIND       PRES   REMARKS
BAUDETTE       CLOUDY    44  41  89 N10       29.99R
FLAG ISLAND    CLOUDY    43  39  87 NW13      30.00R
INTL FALLS     CLOUDY    43  40  89 N7        29.96R
WASKISH        CLEAR     39  39 100 NW7       29.99R
BIG FORK       CLOUDY    43  39  87 N5        29.97R
LONGVILLE      CLOUDY    43  43 100 W3        29.97S
GRAND RAPIDS   MOCLDY    39  36  87 NW9       29.97R
CRANE LAKE     CLOUDY    45  43  93 NW3       29.95R
ORR            CLOUDY    43  39  87 NW7       29.92R
COOK           DRIZZLE   41  39  93 W3        29.94R
WALKER         FAIR      37  37  97 W3        29.99R
$$
MNZ012-019>021-037-201400-
   Northeast Minnesota

CITY           SKY/WX    TMP DP  RH WIND       PRES   REMARKS
DULUTH         PTCLDY    43  39  86 NW6       29.93R
ELY            CLOUDY    45  39  81 N5        29.92R
HIBBING        CLOUDY    42  39  89 NW6       29.95R
EVELETH        CLOUDY    43  39  87 W5        29.95R
DULUTH HARBOR  MOCLDY    48  43  81 NW12      29.94R
TWO HARBORS    CLOUDY    46  34  61 NW3       29.91R
SILVER BAY     CLEAR     48  41  76 CALM      29.90R
GRAND MARAIS     N/A     49  41  74 CALM      29.88R
G MARAIS ARPRT CLOUDY    43  36  75 NW9       29.87R
$$
MNZ029>031-032-039>041-046>048-054>057-064-201400-
   West Central Minnesota

CITY           SKY/WX    TMP DP  RH WIND       PRES   REMARKS
FERGUS FALLS   CLEAR     36  32  87 CALM      30.05R
WHEATON        CLEAR     37  36  93 W5        30.07R
MORRIS         CLEAR     36  34  93 NW7       30.03R
ALEXANDRIA     CLEAR     45  39  79 NW8       30.02R
ELBOW LAKE     FAIR      35  34  94 NW5       30.03R WCI  31
WADENA         CLEAR     37  37 100 NW6       30.01R
GLENWOOD       CLEAR     41  37  87 NW6       30.02R
APPLETON       CLEAR     37  36  93 W5        30.04R
BENSON         CLEAR     36  34  93 N8        30.03R
ORTONVILLE     CLEAR     43  37  81 NW6       30.05R
MADISON        CLEAR     41  36  81 NW3       30.05R
WILLMAR        FAIR      39  36  87 W7        30.02R
$$
MNZ033>034-036-042>043-049>051-058-059-201400-
   Central Minnesota

CITY           SKY/WX    TMP DP  RH WIND       PRES   REMARKS
ST CLOUD       CLEAR     45  39  79 NW3       29.98R
SAUK CENTRE    FAIR      35  34  95 NW3       30.01R
PAYNESVILLE    CLEAR     34  34 100 SW6       30.01R WCI  29
AITKIN         CLEAR     36  30  80 CALM      29.96R
PINE RIVER     CLEAR     34  32  93 CALM      30.02R
BRAINERD       CLEAR     41  39  93 NW5       29.99R
STAPLES        CLEAR     37  36  93 NW3       30.00R
LONG PRAIRIE   FAIR      43  37  81 NW3       30.01R
LITTLE FALLS     N/A     34  32  93 CALM      29.99R FOG
LITCHFIELD     CLEAR     46  43  87 NW6       30.00R
BUFFALO        CLEAR     42  39  88 W3        29.99R
MAPLE LAKE     CLEAR     44  41  91 NW5       29.99R
$$
MNZ037-044-045-052-053-201400-
   East Central Minnesota

CITY           SKY/WX    TMP DP  RH WIND       PRES   REMARKS
PRINCETON      CLEAR     43  39  87 NW6       29.97R
MORA           CLEAR     37  36  93 CALM      29.98R
CAMBRIDGE      CLEAR     41  34  75 CALM      29.95R
RUSH CITY      CLEAR     40  38  93 CALM      29.96R
MOOSE LAKE     CLEAR     41  37  87 NW5       29.93R
HINCKLEY       FAIR      45  41  87 NW6       29.95R
CLOQUET        CLEAR     39  37  93 W5        29.94R
MCGREGOR       CLEAR     41  39  93 NW5       29.96R
$$
MNZ071>073-080-081-089-090-097-098-201400-
   Southwest Minnesota

CITY           SKY/WX    TMP DP  RH WIND       PRES   REMARKS
MONTEVIDEO     CLEAR     41  37  87 NW6       30.04S
GRANITE FALLS  CLEAR     37  35  92 W7        30.05R
CANBY          CLEAR     44  38  79 W5        30.06R
MARSHALL       CLEAR     41  34  75 NW9       30.04R
REDWOOD FALLS  CLEAR     41  37  86 NW9       30.02R
OLIVIA         CLEAR     39  36  87 NW8       30.01R
PIPESTONE      CLEAR     41  36  81 N5        30.05R
WINDOM         CLEAR     39  36  87 W8        30.03R
WORTHINGTON    CLEAR     41  36  81 W7        30.05R
JACKSON        CLEAR     43  36  75 W8        30.03R
TRACY          CLEAR     46  38  73 NW7       30.04R
SLAYTON        CLEAR     43  37  80 W8        30.05R
$$
MNZ065>067-074>077-082>085-091>093-201400-
   South Central Minnesota

CITY           SKY/WX    TMP DP  RH WIND       PRES   REMARKS
MANKATO        CLEAR     45  36  70 W7        29.99R
NEW ULM        CLEAR     39  37  93 W8        30.00R
ST JAMES       CLEAR     45  39  81 W7        30.02R
FAIRMONT       CLEAR     45  36  70 W9        30.01R
GLENCOE        CLEAR     44  40  86 W5        29.98R
FARIBAULT      CLEAR     39  37  93 CALM      29.97S
OWATONNA       CLEAR     37  36  93 CALM      29.98R
WASECA         CLEAR     36  32  87 SW3       30.00R
ALBERT LEA     CLEAR     43  39  87 W5        29.98S
$$
MNZ078>079-086>088-094>096-201400-
   Southeast Minnesota

CITY           SKY/WX    TMP DP  RH WIND       PRES   REMARKS
ROCHESTER      CLEAR     42  39  89 W7        29.97R
RED WING       CLEAR     43  39  87 W5        29.95R
STANTON        CLEAR     43  39  86 CALM      29.96R
DODGE CENTER   CLEAR     45  41  87 W8        29.96S
WINONA         MOCLDY    43  41  93 NW5       29.94S
AUSTIN         CLEAR     43  39  87 NW5       29.97S
PRESTON        CLEAR     42  39  89 NW6       29.96R
$$
ABBREVIATIONS USED IN REMARKS
   TC - TEMPERATURES IN CELSIUS
  WCI - WIND CHILL INDEX
   HX - HEAT INDEX
  VSB - VISIBILITY
$$


USA.gov is the U.S. government's official web portal to all federal, state and local government web resources and services.